, CA

(GMT )
Point Mugu

Weather History for KNTD - May, 2013

Change the Weather History Date:

Wednesday, May 1, 2013

  Actual Average Record
Temperature  
Mean Temperature 63 °F -  
Max Temperature 68 °F 63 °F 95 °F (2014)
Min Temperature 59 °F 47 °F 43 °F (2002)
Degree Days  
Heating Degree Days 2    
Growing Degree Days 13 (Base 50)    
Moisture  
Dew Point 56 °F    
Average Humidity 76    
Maximum Humidity 86    
Minimum Humidity 63    
Precipitation  
Precipitation 0.00 in - - ()
Sea Level Pressure  
Sea Level Pressure 29.99 in    
Wind  
Wind Speed 7 mph (SSW)    
Max Wind Speed 10 mph    
Max Gust Speed -    
Visibility 7 miles    
Events      
Averages and records for this station are not official NWS values.
T = Trace of Precipitation, MM = Missing Value Source: NWS Daily Summary

Daily Weather History Graph

Daily Weather History Graph

Search for Another Location

Airport or City:

Trip Planner

Search our weather history database for the weather conditions in past years. The results will help you decide how hot, cold, wet, or windy it might be!

Date:

Astronomy

May. 01, 2013 Rise Set
Actual Time 6:06 AM PDT 7:40 PM PDT
Civil Twilight 5:40 AM PDT 8:07 PM PDT
Nautical Twilight 5:07 AM PDT 8:39 PM PDT
Astronomical Twilight 4:34 AM PDT 9:13 PM PDT
Moon 12:53 AM PDT (5/1) 11:50 AM PDT (5/1)
Length of Visible Light 14h 27m
Length of Day
13h 33m
Waning Gibbous, 58% of the Moon is Illuminated
May 1
Waning Gibbous
May 2
Last Quarter
May 9
New
May 17
First Quarter
May 24
Full

Hourly Weather History & Observations

Time (PDT) Temp. Dew Point Humidity Pressure Visibility Wind Dir Wind Speed Gust Speed Precip Events Conditions
12:54 AM - - N/A% - - South 4.6 mph - N/A   Haze
1:54 AM 61.7 °F 53.6 °F 75% 29.91 in 6.0 mi SE 10.4 mph - N/A   Haze
2:54 AM 59.7 °F 53.6 °F 80% 29.91 in 6.0 mi SE 10.4 mph - N/A   Haze
3:54 AM 60.1 °F 54.0 °F 80% 29.91 in 6.0 mi SE 4.6 mph - N/A   Haze
4:54 AM 60.4 °F 54.3 °F 80% 29.91 in 6.0 mi SSE 5.8 mph - N/A   Haze
5:54 AM 60.4 °F 54.7 °F 81% 29.92 in 6.0 mi SSE 4.6 mph - N/A   Haze
7:54 AM 63.1 °F 56.1 °F 78% 29.97 in 6.0 mi SE 5.8 mph - N/A   Haze
8:54 AM 62.6 °F 55.4 °F 77% 29.99 in 6.0 mi SSE 8.1 mph - N/A   Haze
9:53 AM 64.4 °F 55.4 °F 73% 30.00 in 7.0 mi South 8.1 mph - N/A   Mostly Cloudy
9:54 AM 63.5 °F 55.9 °F 76% 30.00 in 7.0 mi South 8.1 mph - N/A   Mostly Cloudy
10:17 AM 64.4 °F 55.4 °F 73% 30.00 in 7.0 mi South 9.2 mph - N/A   Scattered Clouds
10:53 AM 64.4 °F 57.2 °F 77% 30.01 in 7.0 mi SSE 10.4 mph - N/A   Partly Cloudy
10:54 AM 64.8 °F 56.8 °F 75% 30.01 in 7.0 mi SSW 9.2 mph - N/A   Partly Cloudy
11:53 AM 64.4 °F 57.2 °F 77% 30.02 in 7.0 mi SSW 9.2 mph - N/A   Partly Cloudy
11:54 AM 64.8 °F 56.5 °F 74% 30.02 in 7.0 mi South 8.1 mph - N/A   Partly Cloudy
12:53 PM 64.4 °F 57.2 °F 77% 30.01 in - WSW 9.2 mph - N/A   Partly Cloudy
12:54 PM 65.1 °F 57.4 °F 76% 30.01 in 7.0 mi WSW 6.9 mph - N/A   Partly Cloudy
1:53 PM 66.2 °F 57.2 °F 73% 30.01 in 7.0 mi SSW 6.9 mph - N/A   Partly Cloudy
1:54 PM 66.4 °F 56.8 °F 71% 30.01 in 7.0 mi SSW 9.2 mph - N/A   Partly Cloudy
2:54 PM 66.4 °F 56.8 °F 71% 30.01 in 7.0 mi WSW 10.4 mph - N/A   Partly Cloudy
3:54 PM 67.8 °F 55.8 °F 65% 30.00 in 7.0 mi West 9.2 mph - N/A   Partly Cloudy
4:54 PM 66.9 °F 53.8 °F 63% 30.00 in 7.0 mi WSW 9.2 mph - N/A   Clear
5:54 PM 66.9 °F 56.8 °F 70% 29.99 in 7.0 mi West 8.1 mph - N/A   Clear
6:54 PM 66.9 °F 56.8 °F 70% 29.99 in 7.0 mi WNW 5.8 mph - N/A   Clear
7:54 PM 63.5 °F 56.8 °F 79% 29.99 in 7.0 mi West 6.9 mph - N/A   Clear
8:54 PM 61.0 °F 56.8 °F 86% 30.00 in 7.0 mi West 4.6 mph - N/A   Clear
9:54 PM 61.0 °F 56.1 °F 84% 30.00 in 7.0 mi Calm Calm - N/A   Clear
10:54 PM 61.0 °F 56.1 °F 84% 30.00 in 7.0 mi SSW 3.5 mph - N/A   Clear
11:54 PM - - N/A% - - Calm Calm - N/A   Clear